Wind_Speed
5 5 5 5 6 6 7 7 7 8 8 8 7 8 8 8 8 8 9 10 10 10 10 10 11 11 11 11 11 11 11 11 11 10 10 10 11 10 11 11 12 11 11 11
6 6 6 6 6 7 7 7 8 9 9 9 8 8 9 10 10 10 10 10 11 11 11 11 11 11 11 11 11 11 11 11 11 10 11 11 11 11 12 12 12 11 11 11
7 7 7 7 7 8 8 9 9 9 9 9 9 9 10 10 10 10 11 11 11 11 11 11 11 12 12 12 12 12 12 11 11 12 12 12 13 13 12 12 12 12 11 11
8 8 8 8 9 9 9 10 10 10 9 10 9 10 10 11 11 11 11 11 11 12 12 11 11 12 12 12 12 12 12 12 12 12 12 12 13 13 12 12 12 12 12 11
9 9 9 9 9 10 10 10 10 10 10 11 11 11 12 12 12 12 12 12 12 12 12 12 12 12 12 13 13 13 13 12 12 12 12 13 13 13 13 12 12 12 12 12
10 10 10 10 10 11 11 11 11 11 11 12 12 12 12 12 12 13 13 13 13 13 13 13 12 12 13 13 14 14 13 13 13 12 12 13 13 12 12 12 12 13 13 13
11 11 11 11 11 11 10 10 11 12 12 13 13 13 13 13 12 13 13 14 14 14 13 13 13 13 13 14 15 14 13 13 13 13 13 13 13 13 13 13 13 13 14 14
12 12 12 12 12 11 11 11 11 12 13 13 13 13 13 13 13 13 13 14 14 14 14 14 14 13 14 14 14 14 14 14 13 13 13 13 13 13 13 13 13 13 14 14
13 14 13 13 13 12 12 11 12 13 13 14 14 14 14 14 14 13 13 14 14 14 15 15 15 15 14 14 14 14 14 14 14 14 14 14 13 13 13 13 13 13 13 13
14 15 15 14 14 14 13 13 13 13 14 15 15 15 15 14 14 14 14 14 15 15 15 15 16 16 16 15 15 15 15 15 15 15 15 15 14 14 14 14 14 14 14 14
15 16 15 15 15 15 15 15 15 15 15 16 16 16 16 16 16 16 16 16 16 16 16 16 16 16 16 16 16 16 16 16 16 16 16 16 15 15 14 15 15 15 15 15
15 16 16 16 16 16 16 16 16 17 17 17 18 18 17 17 17 17 17 17 17 17 18 17 17 17 17 17 17 17 17 17 16 16 16 16 15 15 15 15 15 15 15 15
16 16 17 17 17 17 17 17 18 18 18 18 18 19 18 18 18 18 18 18 18 18 18 18 18 18 19 19 18 18 18 18 18 17 17 17 17 16 16 16 16 16 16 16
17 17 18 18 19 18 18 18 18 19 19 19 18 19 19 19 19 19 19 19 19 19 19 19 19 19 19 19 19 19 19 19 19 19 19 19 18 17 17 17 17 17 17 17
18 18 18 19 19 19 19 19 19 19 19 19 19 19 20 20 20 20 20 20 20 19 19 20 20 20 21 21 21 21 21 21 21 21 21 21 20 19 19 19 19 19 19 19
18 18 19 19 19 19 19 19 19 20 20 21 20 20 20 21 21 21 21 21 21 20 20 21 21 22 22 22 22 22 22 23 23 23 23 22 22 21 21 20 20 20 20 20
19 19 20 20 20 20 20 20 21 21 22 22 22 21 22 22 22 22 22 22 22 22 22 22 22 23 23 23 24 24 24 24 24 24 24 24 24 23 23 22 22 22 22 22
19 20 21 21 21 21 21 20 21 22 23 23 23 23 22 22 22 23 23 23 23 23 23 23 23 24 24 25 25 25 25 26 25 25 25 25 25 25 25 25 25 24 24 24
20 21 22 22 23 23 22 22 22 23 23 24 24 24 24 23 23 23 24 24 25 25 25 25 25 25 25 26 27 27 27 27 26 26 27 27 27 27 27 27 27 26 26 26
21 22 22 23 24 24 23 22 23 24 24 23 25 25 25 25 26 25 25 25 26 26 26 27 26 27 27 27 28 28 28 29 29 28 28 29 29 29 28 29 29 29 28 28
21 23 23 24 24 24 24 23 23 24 25 24 25 26 27 27 27 26 26 26 27 28 28 28 28 28 28 28 28 29 29 30 30 29 29 29 30 30 30 30 30 30 31 31
22 23 23 24 25 25 25 24 24 25 25 26 26 26 27 27 27 27 28 28 28 29 29 29 29 29 29 30 29 30 30 31 31 31 31 31 31 31 31 32 32 32 32 33
23 24 25 25 26 26 25 24 25 25 26 27 27 28 28 28 28 28 29 29 29 29 30 30 30 30 31 31 31 31 31 32 32 32 32 33 34 34 34 34 34 34 34 34
24 25 27 27 27 27 27 26 27 28 28 28 28 28 29 29 30 30 30 30 30 30 31 31 31 32 32 32 33 33 33 33 34 34 34 35 35 35 35 36 36 36 36 35
26 27 28 29 29 29 29 29 29 29 29 29 29 29 30 30 31 32 31 31 31 32 32 32 33 33 33 33 33 34 34 34 35 35 36 36 36 35 36 36 37 37 37 37
28 29 30 30 30 31 30 31 31 31 30 31 31 31 31 31 32 32 32 32 32 33 33 34 34 34 35 35 35 35 35 36 36 37 37 38 37 37 36 36 36 37 38 38
Wind_Direction
257 260 257 253 252 254 257 262 265 268 269 271 270 268 270 272 272 270 270 272 272 271 270 272 274 275 275 277 277 276 278 277 276 276 277 280 281 282 282 283 283 282 278 278
257 257 255 255 256 259 260 264 266 267 269 270 272 274 274 273 272 272 272 272 272 272 274 275 277 278 277 278 277 276 276 276 275 275 277 277 278 281 283 286 287 284 279 279
257 257 257 257 260 266 266 268 269 270 270 272 273 276 276 276 273 272 273 275 274 274 277 279 279 277 278 278 276 276 276 276 275 276 278 276 276 278 280 283 285 284 282 279
259 260 260 260 263 266 269 271 273 273 272 274 273 275 276 275 275 272 272 274 276 277 279 279 277 274 275 276 276 275 275 276 276 275 277 277 277 277 278 279 282 283 283 282
260 261 262 263 264 265 268 271 274 275 274 274 273 273 274 274 274 273 272 273 276 278 279 280 279 275 274 275 275 275 276 276 278 279 280 278 277 278 276 276 279 281 280 278
260 262 263 264 265 267 270 273 275 276 276 275 274 273 272 271 272 273 272 271 272 275 277 277 277 278 275 273 274 274 275 276 278 279 281 278 278 279 278 278 279 278 277 276
260 261 263 264 265 267 269 271 275 277 276 275 274 273 273 271 269 270 272 271 272 273 275 277 276 277 276 274 274 274 274 273 274 275 278 276 277 278 278 281 281 280 278 276
259 259 262 263 264 266 267 267 268 272 275 276 277 276 276 274 272 271 272 272 271 272 273 275 276 275 275 275 273 271 271 270 271 275 278 276 275 278 277 278 281 281 280 278
259 261 262 263 263 264 265 266 269 271 274 277 278 278 277 278 276 275 274 273 272 273 274 274 275 273 273 273 274 271 271 272 275 275 276 278 276 276 278 278 279 280 280 279
262 264 262 262 262 263 266 268 269 271 274 277 279 279 281 278 276 276 273 271 271 272 272 273 273 272 272 272 273 273 272 273 275 275 274 274 276 278 278 278 278 278 277 278
263 264 263 262 263 265 267 268 270 271 271 273 276 277 280 279 278 277 275 272 272 272 272 271 272 273 273 273 272 273 272 273 274 276 276 276 273 275 279 282 278 277 277 275
261 261 262 263 264 264 267 269 270 271 273 273 274 274 278 277 276 277 277 274 272 270 270 270 270 272 272 271 271 272 271 272 272 274 275 274 273 273 276 279 280 279 277 276
262 263 264 264 265 266 267 268 270 271 272 273 274 276 277 277 277 277 277 275 273 272 270 270 270 271 272 271 270 270 271 270 270 271 271 273 272 272 274 276 277 279 279 278
264 265 265 265 268 268 266 267 269 270 271 273 274 276 278 279 278 278 277 274 273 273 272 272 271 270 270 270 269 268 269 269 269 269 270 273 272 271 273 273 275 277 278 278
265 265 266 266 267 267 266 266 268 269 271 272 273 274 276 278 279 278 277 276 273 271 272 271 271 270 270 270 268 267 267 269 270 271 270 271 271 272 271 271 273 275 276 277
264 266 266 265 267 268 268 267 269 271 272 273 273 275 276 278 280 280 279 278 276 272 271 272 272 271 270 269 268 267 267 268 269 270 270 270 270 271 270 269 271 273 274 275
264 266 267 267 268 267 268 270 271 272 272 273 274 275 276 277 280 281 281 279 278 276 273 272 272 271 270 269 268 268 268 268 268 268 269 270 269 269 271 272 271 271 272 273
264 266 268 269 268 269 272 273 275 276 275 274 274 275 277 278 279 279 280 278 277 276 274 273 272 272 271 270 269 269 269 268 268 268 268 268 269 269 271 272 272 272 271 271
265 267 269 269 272 273 273 276 278 277 275 274 275 275 276 278 279 279 279 277 277 277 275 273 272 272 272 270 270 270 268 268 268 268 269 269 269 269 270 271 272 272 272 272
267 268 271 272 273 275 276 276 277 277 276 276 276 276 276 278 279 280 279 277 277 277 277 275 274 273 273 272 271 270 268 267 268 269 270 270 271 270 269 270 271 271 272 272
270 270 272 274 275 276 277 278 279 278 279 278 278 278 278 278 279 280 279 278 278 279 279 278 276 275 274 274 272 269 268 267 268 268 269 270 271 270 270 271 271 271 271 272
272 272 272 273 275 277 278 278 279 280 280 279 279 279 279 279 279 279 278 278 279 280 280 279 278 276 275 274 273 271 269 268 268 269 269 271 271 270 271 272 272 272 272 272
271 272 272 273 275 277 279 279 279 280 281 281 281 280 281 281 280 279 278 278 279 280 281 280 279 278 277 276 274 272 271 270 270 270 270 271 272 271 271 271 271 272 272 273
270 271 271 271 273 275 278 280 280 280 281 283 284 283 283 282 281 281 279 278 279 279 280 280 280 279 278 277 275 275 273 271 271 272 272 273 274 273 272 272 271 271 272 272
272 271 271 271 272 275 278 279 279 281 281 282 284 284 284 284 283 282 281 280 279 280 280 280 280 278 277 277 276 276 275 273 272 272 272 273 274 273 273 273 272 272 272 272
270 270 271 273 273 275 277 277 279 280 281 281 284 285 284 284 283 282 281 279 279 280 281 281 280 278 277 277 276 276 275 273 273 273 273 273 274 272 273 273 273 272 273 272
Height
5873 5875 5874 5875 5875 5876 5876 5876 5876 5876 5876 5876 5876 5876 5876 5875 5875 5875 5874 5874 5874 5873 5873 5873 5872 5872 5872 5871 5871 5870 5870 5869 5869 5868 5867 5866 5866 5865 5864 5862 5861 5861 5860 5859
5873 5873 5873 5873 5873 5874 5874 5874 5874 5874 5874 5874 5874 5874 5873 5873 5872 5872 5872 5872 5871 5871 5870 5870 5870 5869 5869 5868 5868 5868 5867 5867 5866 5865 5865 5864 5863 5862 5861 5860 5859 5858 5857 5856
5870 5871 5871 5871 5871 5872 5872 5872 5872 5872 5872 5872 5872 5872 5871 5870 5870 5869 5869 5869 5869 5868 5868 5867 5867 5867 5866 5865 5865 5865 5864 5864 5863 5863 5862 5861 5860 5859 5859 5858 5857 5856 5855 5854
5867 5868 5868 5869 5869 5869 5869 5869 5869 5869 5870 5870 5870 5870 5869 5867 5867 5867 5866 5866 5866 5865 5865 5864 5864 5864 5863 5863 5862 5862 5861 5861 5860 5860 5859 5858 5857 5856 5856 5855 5854 5853 5852 5851
5865 5865 5866 5866 5867 5866 5867 5867 5867 5867 5867 5867 5867 5867 5867 5865 5864 5864 5864 5863 5863 5862 5862 5861 5861 5861 5860 5860 5859 5859 5858 5858 5857 5856 5856 5855 5854 5853 5852 5852 5851 5851 5850 5849
5862 5863 5863 5863 5863 5863 5864 5864 5864 5864 5864 5865 5864 5864 5863 5862 5862 5861 5860 5860 5859 5859 5858 5858 5857 5857 5857 5856 5856 5855 5855 5854 5854 5853 5852 5851 5851 5850 5849 5849 5848 5848 5847 5846
5859 5859 5860 5860 5860 5861 5861 5862 5862 5861 5861 5861 5860 5860 5860 5859 5858 5857 5857 5856 5856 5855 5855 5854 5854 5853 5853 5853 5852 5851 5851 5851 5850 5849 5849 5848 5847 5847 5846 5845 5845 5844 5844 5843
5855 5856 5857 5857 5857 5858 5858 5858 5860 5859 5858 5857 5856 5856 5856 5855 5854 5854 5853 5852 5852 5851 5851 5850 5850 5850 5849 5849 5848 5848 5847 5847 5846 5846 5845 5844 5844 5844 5843 5842 5841 5841 5840 5840
5851 5852 5853 5853 5853 5854 5854 5854 5855 5855 5854 5854 5853 5852 5852 5851 5850 5850 5849 5848 5848 5847 5847 5846 5846 5845 5845 5845 5844 5844 5843 5843 5843 5842 5842 5841 5840 5840 5839 5839 5838 5837 5837 5836
5847 5848 5848 5849 5849 5849 5850 5850 5850 5850 5850 5850 5849 5848 5848 5847 5846 5846 5845 5844 5844 5843 5843 5842 5842 5841 5841 5840 5840 5840 5839 5839 5838 5838 5838 5837 5836 5836 5836 5835 5834 5834 5833 5832
5842 5843 5844 5844 5845 5845 5846 5846 5845 5845 5845 5845 5845 5846 5843 5842 5841 5841 5840 5840 5839 5839 5838 5838 5837 5836 5836 5836 5835 5835 5834 5834 5834 5834 5833 5833 5832 5832 5831 5831 5830 5830 5829 5828
5838 5838 5839 5839 5840 5840 5840 5840 5841 5841 5840 5840 5840 5842 5838 5837 5836 5835 5835 5834 5834 5833 5833 5833 5832 5832 5831 5831 5831 5830 5830 5830 5829 5829 5829 5828 5828 5827 5827 5827 5826 5825 5825 5824
5833 5834 5834 5834 5836 5835 5835 5835 5835 5835 5835 5834 5834 5836 5832 5831 5831 5830 5829 5829 5828 5828 5827 5827 5827 5827 5826 5826 5826 5825 5825 5825 5824 5824 5824 5823 5823 5823 5822 5822 5821 5821 5820 5819
5828 5828 5829 5830 5829 5829 5829 5829 5829 5829 5829 5829 5829 5829 5827 5826 5825 5824 5824 5823 5822 5822 5821 5821 5821 5821 5821 5821 5820 5820 5820 5819 5819 5819 5819 5818 5818 5818 5817 5817 5816 5816 5815 5815
5822 5823 5823 5823 5822 5822 5823 5823 5823 5823 5823 5823 5823 5822 5821 5820 5819 5818 5817 5817 5816 5816 5815 5815 5815 5815 5815 5815 5814 5814 5814 5814 5814 5814 5813 5813 5813 5812 5812 5812 5811 5811 5810 5810
5817 5817 5817 5817 5817 5816 5817 5817 5817 5817 5817 5817 5817 5816 5815 5814 5813 5812 5811 5810 5810 5809 5809 5808 5808 5808 5808 5808 5808 5808 5808 5808 5807 5807 5807 5807 5806 5806 5806 5806 5805 5805 5804 5804
5811 5812 5812 5812 5811 5811 5811 5812 5811 5811 5811 5811 5810 5811 5809 5808 5806 5805 5804 5804 5803 5802 5802 5802 5801 5801 5801 5801 5801 5801 5801 5801 5800 5800 5800 5800 5800 5800 5799 5799 5799 5798 5798 5797
5806 5805 5805 5806 5806 5805 5808 5806 5805 5805 5804 5804 5803 5803 5802 5801 5800 5799 5797 5796 5796 5795 5795 5794 5794 5794 5793 5793 5793 5793 5793 5793 5793 5793 5793 5793 5792 5792 5792 5792 5791 5791 5791 5790
5800 5800 5800 5800 5799 5799 5800 5800 5799 5798 5798 5797 5796 5795 5795 5794 5793 5792 5790 5789 5788 5787 5787 5787 5786 5786 5785 5785 5785 5785 5785 5785 5785 5785 5785 5784 5784 5784 5784 5784 5783 5783 5783 5782
5794 5794 5794 5793 5793 5793 5795 5794 5792 5792 5791 5790 5789 5788 5787 5786 5786 5785 5783 5781 5780 5780 5779 5778 5778 5777 5777 5777 5776 5776 5776 5776 5776 5776 5776 5776 5775 5775 5775 5775 5775 5774 5774 5774
5788 5787 5787 5786 5785 5786 5787 5786 5785 5786 5785 5783 5781 5780 5779 5778 5778 5777 5775 5774 5773 5772 5771 5770 5769 5769 5768 5768 5767 5767 5767 5767 5767 5767 5767 5766 5766 5766 5766 5765 5765 5765 5764 5764
5781 5780 5780 5779 5779 5781 5779 5778 5778 5778 5776 5775 5774 5772 5771 5770 5769 5768 5767 5766 5765 5763 5762 5761 5760 5760 5759 5758 5758 5758 5758 5757 5757 5758 5757 5757 5757 5756 5756 5755 5755 5754 5754 5754
5773 5774 5773 5773 5774 5772 5770 5770 5770 5769 5768 5766 5766 5764 5763 5762 5761 5759 5758 5757 5756 5755 5753 5752 5751 5750 5750 5749 5748 5748 5748 5747 5747 5747 5747 5747 5746 5746 5745 5745 5744 5744 5743 5742
5766 5765 5765 5764 5765 5764 5763 5762 5762 5761 5759 5758 5757 5756 5755 5753 5752 5750 5749 5748 5746 5745 5744 5743 5741 5740 5740 5739 5738 5738 5737 5737 5737 5737 5737 5736 5735 5735 5734 5733 5733 5732 5732 5731
5758 5757 5756 5756 5756 5755 5755 5754 5753 5752 5751 5750 5749 5747 5746 5744 5742 5741 5739 5738 5737 5735 5734 5733 5731 5730 5729 5728 5728 5727 5726 5726 5726 5726 5725 5725 5724 5723 5723 5722 5721 5720 5720 5719
5750 5748 5747 5747 5747 5747 5746 5745 5744 5743 5742 5740 5739 5738 5736 5734 5733 5731 5729 5728 5727 5725 5724 5722 5721 5719 5718 5717 5717 5716 5715 5715 5714 5714 5713 5713 5712 5712 5711 5710 5709 5708 5708 5707